Year,Month,Day,Hour,Minute,Value (Times are PST for temperature in C)
2010,11,17,00,00,5.30
2010,11,17,00,01,5.30
2010,11,17,00,02,5.30
2010,11,17,00,03,5.30
2010,11,17,00,04,5.30
2010,11,17,00,05,5.30
2010,11,17,00,06,5.30
2010,11,17,00,07,5.30
2010,11,17,00,08,5.30
2010,11,17,00,09,5.30
2010,11,17,00,10,5.30
2010,11,17,00,11,5.30
2010,11,17,00,12,5.30
2010,11,17,00,13,5.30
2010,11,17,00,14,5.30
2010,11,17,00,15,5.30
2010,11,17,00,16,5.30
2010,11,17,00,17,5.30
2010,11,17,00,18,5.30
2010,11,17,00,19,5.30
2010,11,17,00,20,5.30
2010,11,17,00,21,5.30
2010,11,17,00,22,5.30
2010,11,17,00,23,5.30
2010,11,17,00,24,5.30
2010,11,17,00,25,5.30
2010,11,17,00,26,5.20
2010,11,17,00,27,5.20
2010,11,17,00,28,5.20
2010,11,17,00,29,5.20
2010,11,17,00,30,5.20
2010,11,17,00,31,5.20
2010,11,17,00,32,5.20
2010,11,17,00,33,5.20
2010,11,17,00,34,5.20
2010,11,17,00,35,5.20
2010,11,17,00,36,5.20
2010,11,17,00,37,5.20
2010,11,17,00,38,5.20
2010,11,17,00,39,5.20
2010,11,17,00,40,5.20
2010,11,17,00,41,5.20
2010,11,17,00,42,5.20
2010,11,17,00,43,5.20
2010,11,17,00,44,5.20
2010,11,17,00,45,5.20
2010,11,17,00,46,5.20
2010,11,17,00,47,5.20
2010,11,17,00,48,5.20
2010,11,17,00,49,5.10
2010,11,17,00,50,5.10
2010,11,17,00,51,5.10
2010,11,17,00,52,5.10
2010,11,17,00,53,5.10
2010,11,17,00,54,5.10
2010,11,17,00,55,5.10
2010,11,17,00,56,5.10
2010,11,17,00,57,5.10
2010,11,17,00,58,5.10
2010,11,17,00,59,5.10
2010,11,17,01,00,5.10
2010,11,17,01,01,5.10
2010,11,17,01,02,5.10
2010,11,17,01,03,5.10
2010,11,17,01,04,5.10
2010,11,17,01,05,5.10
2010,11,17,01,06,5.10
2010,11,17,01,07,5.10
2010,11,17,01,08,5.10
2010,11,17,01,09,5.10
2010,11,17,01,10,5.10
2010,11,17,01,11,5.10
2010,11,17,01,12,5.10
2010,11,17,01,13,5.10
2010,11,17,01,14,5.10
2010,11,17,01,15,5.10
2010,11,17,01,16,5.10
2010,11,17,01,17,5.10
2010,11,17,01,18,5.10
2010,11,17,01,19,5.10
2010,11,17,01,20,5.10
2010,11,17,01,21,5.10
2010,11,17,01,22,5.10
2010,11,17,01,23,5.10
2010,11,17,01,24,5.10
2010,11,17,01,25,5.10
2010,11,17,01,26,5.10
2010,11,17,01,27,5.00
2010,11,17,01,28,5.10
2010,11,17,01,29,5.00
2010,11,17,01,30,5.00
2010,11,17,01,31,5.10
2010,11,17,01,32,5.10
2010,11,17,01,33,5.10
2010,11,17,01,34,5.10
2010,11,17,01,35,5.10
2010,11,17,01,36,5.10
2010,11,17,01,37,5.10
2010,11,17,01,38,5.10
2010,11,17,01,39,5.10
2010,11,17,01,40,5.10
2010,11,17,01,41,5.10
2010,11,17,01,42,5.10
2010,11,17,01,43,5.10
2010,11,17,01,44,5.10
2010,11,17,01,45,5.10
2010,11,17,01,46,5.10
2010,11,17,01,47,5.10
2010,11,17,01,48,5.10
2010,11,17,01,49,5.00
2010,11,17,01,50,5.00
2010,11,17,01,51,5.00
2010,11,17,01,52,5.00
2010,11,17,01,53,5.00
2010,11,17,01,54,5.00
2010,11,17,01,55,5.00
2010,11,17,01,56,5.00
2010,11,17,01,57,5.00
2010,11,17,01,58,4.90
2010,11,17,01,59,4.90
2010,11,17,02,00,4.90
2010,11,17,02,01,4.90
2010,11,17,02,02,4.90
2010,11,17,02,03,4.90
2010,11,17,02,04,4.90
2010,11,17,02,05,4.90
2010,11,17,02,06,4.90
2010,11,17,02,07,4.90
2010,11,17,02,08,4.90
2010,11,17,02,09,4.90
2010,11,17,02,10,4.90
2010,11,17,02,11,4.90
2010,11,17,02,12,4.90
2010,11,17,02,13,4.80
2010,11,17,02,14,4.80
2010,11,17,02,15,4.80
2010,11,17,02,16,4.80
2010,11,17,02,17,4.80
2010,11,17,02,18,4.80
2010,11,17,02,19,4.80
2010,11,17,02,20,4.80
2010,11,17,02,21,4.80
2010,11,17,02,22,4.80
2010,11,17,02,23,4.80
2010,11,17,02,24,4.80
2010,11,17,02,25,4.80
2010,11,17,02,26,4.80
2010,11,17,02,27,4.80
2010,11,17,02,28,4.80
2010,11,17,02,29,4.70
2010,11,17,02,30,4.70
2010,11,17,02,31,4.70
2010,11,17,02,32,4.70
2010,11,17,02,33,4.70
2010,11,17,02,34,4.70
2010,11,17,02,35,4.70
2010,11,17,02,36,4.70
2010,11,17,02,37,4.70
2010,11,17,02,38,4.70
2010,11,17,02,39,4.70
2010,11,17,02,40,4.70
2010,11,17,02,41,4.70
2010,11,17,02,42,4.70
2010,11,17,02,43,4.70
2010,11,17,02,44,4.60
2010,11,17,02,45,4.60
2010,11,17,02,46,4.60
2010,11,17,02,47,4.60
2010,11,17,02,48,4.60
2010,11,17,02,49,4.60
2010,11,17,02,50,4.60
2010,11,17,02,51,4.60
2010,11,17,02,52,4.60
2010,11,17,02,53,4.60
2010,11,17,02,54,4.60
2010,11,17,02,55,4.60
2010,11,17,02,56,4.60
2010,11,17,02,57,4.60
2010,11,17,02,58,4.60
2010,11,17,02,59,4.60
2010,11,17,03,00,4.60
2010,11,17,03,01,4.60
2010,11,17,03,02,4.50
2010,11,17,03,03,4.50
2010,11,17,03,04,4.50
2010,11,17,03,05,4.50
2010,11,17,03,06,4.50
2010,11,17,03,07,4.50
2010,11,17,03,08,4.50
2010,11,17,03,09,4.50
2010,11,17,03,10,4.50
2010,11,17,03,11,4.50
2010,11,17,03,12,4.50
2010,11,17,03,13,4.50
2010,11,17,03,14,4.50
2010,11,17,03,15,4.50
2010,11,17,03,16,4.50
2010,11,17,03,17,4.50
2010,11,17,03,18,4.50
2010,11,17,03,19,4.50
2010,11,17,03,20,4.50
2010,11,17,03,21,4.50
2010,11,17,03,22,4.50
2010,11,17,03,23,4.50
2010,11,17,03,24,4.50
2010,11,17,03,25,4.50
2010,11,17,03,26,4.50
2010,11,17,03,27,4.50
2010,11,17,03,28,4.50
2010,11,17,03,29,4.50
2010,11,17,03,30,4.50
2010,11,17,03,31,4.50
2010,11,17,03,32,4.50
2010,11,17,03,33,4.50
2010,11,17,03,34,4.50
2010,11,17,03,35,4.50
2010,11,17,03,36,4.50
2010,11,17,03,37,4.50
2010,11,17,03,38,4.50
2010,11,17,03,39,4.50
2010,11,17,03,40,4.40
2010,11,17,03,41,4.40
2010,11,17,03,42,4.40
2010,11,17,03,43,4.40
2010,11,17,03,44,4.40
2010,11,17,03,45,4.40
2010,11,17,03,46,4.40
2010,11,17,03,47,4.40
2010,11,17,03,48,4.40
2010,11,17,03,49,4.40
2010,11,17,03,50,4.40
2010,11,17,03,51,4.40
2010,11,17,03,52,4.40
2010,11,17,03,53,4.40
2010,11,17,03,54,4.40
2010,11,17,03,55,4.40
2010,11,17,03,56,4.40
2010,11,17,03,57,4.40
2010,11,17,03,58,4.40
2010,11,17,03,59,4.40
2010,11,17,04,00,4.40
2010,11,17,04,01,4.40
2010,11,17,04,02,4.40
2010,11,17,04,03,4.40
2010,11,17,04,04,4.40
2010,11,17,04,05,4.40
2010,11,17,04,06,4.40
2010,11,17,04,07,4.40
2010,11,17,04,08,4.40
2010,11,17,04,09,4.40
2010,11,17,04,10,4.40
2010,11,17,04,11,4.40
2010,11,17,04,12,4.40
2010,11,17,04,13,4.40
2010,11,17,04,14,4.40
2010,11,17,04,15,4.40
2010,11,17,04,16,4.40
2010,11,17,04,17,4.40
2010,11,17,04,18,4.40
2010,11,17,04,19,4.40
2010,11,17,04,20,4.40
2010,11,17,04,21,4.40
2010,11,17,04,22,4.40
2010,11,17,04,23,4.40
2010,11,17,04,24,4.40
2010,11,17,04,25,4.40
2010,11,17,04,26,4.40
2010,11,17,04,27,4.40
2010,11,17,04,28,4.40
2010,11,17,04,29,4.40
2010,11,17,04,30,4.40
2010,11,17,04,31,4.40
2010,11,17,04,32,4.40
2010,11,17,04,33,4.40
2010,11,17,04,34,4.40
2010,11,17,04,35,4.40
2010,11,17,04,36,4.40
2010,11,17,04,37,4.40
2010,11,17,04,38,4.40
2010,11,17,04,39,4.40
2010,11,17,04,40,4.40
2010,11,17,04,41,4.40
2010,11,17,04,42,4.40
2010,11,17,04,43,4.40
2010,11,17,04,44,4.40
2010,11,17,04,45,4.40
2010,11,17,04,46,4.40
2010,11,17,04,47,4.40
2010,11,17,04,48,4.40
2010,11,17,04,49,4.40
2010,11,17,04,50,4.40
2010,11,17,04,51,4.40
2010,11,17,04,52,4.40
2010,11,17,04,53,4.40
2010,11,17,04,54,4.40
2010,11,17,04,55,4.40
2010,11,17,04,56,4.50
2010,11,17,04,57,4.50
2010,11,17,04,58,4.50
2010,11,17,04,59,4.50
2010,11,17,05,00,4.50
2010,11,17,05,01,4.50
2010,11,17,05,02,4.50
2010,11,17,05,03,4.50
2010,11,17,05,04,4.50
2010,11,17,05,05,4.50
2010,11,17,05,06,4.50
2010,11,17,05,07,4.50
2010,11,17,05,08,4.50
2010,11,17,05,09,4.50
2010,11,17,05,10,4.50
2010,11,17,05,11,4.40
2010,11,17,05,12,4.50
2010,11,17,05,13,4.40
2010,11,17,05,14,4.40
2010,11,17,05,15,4.40
2010,11,17,05,16,4.40
2010,11,17,05,17,4.40
2010,11,17,05,18,4.40
2010,11,17,05,19,4.40
2010,11,17,05,20,4.40
2010,11,17,05,21,4.40
2010,11,17,05,22,4.40
2010,11,17,05,23,4.40
2010,11,17,05,24,4.40
2010,11,17,05,25,4.40
2010,11,17,05,26,4.40
2010,11,17,05,27,4.40
2010,11,17,05,28,4.40
2010,11,17,05,29,4.40
2010,11,17,05,30,4.40
2010,11,17,05,31,4.30
2010,11,17,05,32,4.30
2010,11,17,05,33,4.30
2010,11,17,05,34,4.30
2010,11,17,05,35,4.30
2010,11,17,05,36,4.30
2010,11,17,05,37,4.30
2010,11,17,05,38,4.20
2010,11,17,05,39,4.30
2010,11,17,05,40,4.20
2010,11,17,05,41,4.20
2010,11,17,05,42,4.20
2010,11,17,05,43,4.20
2010,11,17,05,44,4.20
2010,11,17,05,45,4.20
2010,11,17,05,46,4.20
2010,11,17,05,47,4.20
2010,11,17,05,48,4.20
2010,11,17,05,49,4.20
2010,11,17,05,50,4.20
2010,11,17,05,51,4.20
2010,11,17,05,52,4.20
2010,11,17,05,53,4.20
2010,11,17,05,54,4.20
2010,11,17,05,55,4.20
2010,11,17,05,56,4.20
2010,11,17,05,57,4.20
2010,11,17,05,58,4.20
2010,11,17,05,59,4.20
2010,11,17,06,00,4.20
2010,11,17,06,01,4.20
2010,11,17,06,02,4.20
2010,11,17,06,03,4.20
2010,11,17,06,04,4.20
2010,11,17,06,05,4.20
2010,11,17,06,06,4.20
2010,11,17,06,07,4.20
2010,11,17,06,08,4.20
2010,11,17,06,09,4.10
2010,11,17,06,10,4.10
2010,11,17,06,11,4.10
2010,11,17,06,12,4.10
2010,11,17,06,13,4.10
2010,11,17,06,14,4.10
2010,11,17,06,15,4.10
2010,11,17,06,16,4.10
2010,11,17,06,17,4.10
2010,11,17,06,18,4.10
2010,11,17,06,19,4.10
2010,11,17,06,20,4.10
2010,11,17,06,21,4.10
2010,11,17,06,22,4.10
2010,11,17,06,23,4.10
2010,11,17,06,24,4.10
2010,11,17,06,25,4.10
2010,11,17,06,26,4.10
2010,11,17,06,27,4.10
2010,11,17,06,28,4.10
2010,11,17,06,29,4.10
2010,11,17,06,30,4.10
2010,11,17,06,31,4.10
2010,11,17,06,32,4.10
2010,11,17,06,33,4.10
2010,11,17,06,34,4.10
2010,11,17,06,35,4.10
2010,11,17,06,36,4.10
2010,11,17,06,37,4.10
2010,11,17,06,38,4.10
2010,11,17,06,39,4.10
2010,11,17,06,40,4.10
2010,11,17,06,41,4.10
2010,11,17,06,42,4.10
2010,11,17,06,43,4.20
2010,11,17,06,44,4.20
2010,11,17,06,45,4.20
2010,11,17,06,46,4.20
2010,11,17,06,47,4.20
2010,11,17,06,48,4.20
2010,11,17,06,49,4.20
2010,11,17,06,50,4.20
2010,11,17,06,51,4.20
2010,11,17,06,52,4.20
2010,11,17,06,53,4.20
2010,11,17,06,54,4.20
2010,11,17,06,55,4.20
2010,11,17,06,56,4.20
2010,11,17,06,57,4.20
2010,11,17,06,58,4.20
2010,11,17,06,59,4.20
2010,11,17,07,00,4.20
2010,11,17,07,01,4.20
2010,11,17,07,02,4.30
2010,11,17,07,03,4.30
2010,11,17,07,04,4.30
2010,11,17,07,05,4.30
2010,11,17,07,06,4.30
2010,11,17,07,07,4.30
2010,11,17,07,08,4.30
2010,11,17,07,09,4.30
2010,11,17,07,10,4.30
2010,11,17,07,11,4.30
2010,11,17,07,12,4.30
2010,11,17,07,13,4.40
2010,11,17,07,14,4.40
2010,11,17,07,15,4.40
2010,11,17,07,16,4.40
2010,11,17,07,17,4.40
2010,11,17,07,18,4.30
2010,11,17,07,19,4.30
2010,11,17,07,20,4.30
2010,11,17,07,21,4.30
2010,11,17,07,22,4.30
2010,11,17,07,23,4.30
2010,11,17,07,24,4.20
2010,11,17,07,25,4.20
2010,11,17,07,26,4.20
2010,11,17,07,27,4.20
2010,11,17,07,28,4.20
2010,11,17,07,29,4.20
2010,11,17,07,30,4.20
2010,11,17,07,31,4.20
2010,11,17,07,32,4.20
2010,11,17,07,33,4.20
2010,11,17,07,34,4.20
2010,11,17,07,35,4.20
2010,11,17,07,36,4.20
2010,11,17,07,37,4.20
2010,11,17,07,38,4.30
2010,11,17,07,39,4.30
2010,11,17,07,40,4.30
2010,11,17,07,41,4.30
2010,11,17,07,42,4.30
2010,11,17,07,43,4.40
2010,11,17,07,44,4.40
2010,11,17,07,45,4.40
2010,11,17,07,46,4.40
2010,11,17,07,47,4.50
2010,11,17,07,48,4.50
2010,11,17,07,49,4.50
2010,11,17,07,50,4.50
2010,11,17,07,51,4.60
2010,11,17,07,52,4.60
2010,11,17,07,53,4.60
2010,11,17,07,54,4.60
2010,11,17,07,55,4.60
2010,11,17,07,56,4.60
2010,11,17,07,57,4.60
2010,11,17,07,58,4.60
2010,11,17,07,59,4.60
2010,11,17,08,00,4.60
2010,11,17,08,01,4.60
2010,11,17,08,02,4.60
2010,11,17,08,03,4.60
2010,11,17,08,04,4.60
2010,11,17,08,05,4.60
2010,11,17,08,06,4.60
2010,11,17,08,07,4.60
2010,11,17,08,08,4.60
2010,11,17,08,09,4.50
2010,11,17,08,10,4.50
2010,11,17,08,11,4.50
2010,11,17,08,12,4.50
2010,11,17,08,13,4.50
2010,11,17,08,14,4.50
2010,11,17,08,15,4.50
2010,11,17,08,16,4.50
2010,11,17,08,17,4.50
2010,11,17,08,18,4.50
2010,11,17,08,19,4.50
2010,11,17,08,20,4.50
2010,11,17,08,21,4.50
2010,11,17,08,22,4.50
2010,11,17,08,23,4.50
2010,11,17,08,24,4.40
2010,11,17,08,25,4.40
2010,11,17,08,26,4.30
2010,11,17,08,27,4.20
2010,11,17,08,28,4.10
2010,11,17,08,29,4.00
2010,11,17,08,30,3.90
2010,11,17,08,31,3.90
2010,11,17,08,32,3.80
2010,11,17,08,33,3.80
2010,11,17,08,34,3.80
2010,11,17,08,35,3.70
2010,11,17,08,36,3.70
2010,11,17,08,37,3.70
2010,11,17,08,38,3.70
2010,11,17,08,39,3.70
2010,11,17,08,40,3.70
2010,11,17,08,41,3.60
2010,11,17,08,42,3.60
2010,11,17,08,43,3.60
2010,11,17,08,44,3.60
2010,11,17,08,45,3.60
2010,11,17,08,46,3.60
2010,11,17,08,47,3.60
2010,11,17,08,48,3.60
2010,11,17,08,49,3.50
2010,11,17,08,50,3.50
2010,11,17,08,51,3.50
2010,11,17,08,52,3.50
2010,11,17,08,53,3.50
2010,11,17,08,54,3.50
2010,11,17,08,55,3.50
2010,11,17,08,56,3.50
2010,11,17,08,57,3.50
2010,11,17,08,58,3.40
2010,11,17,08,59,3.40
2010,11,17,09,00,3.40
2010,11,17,09,01,3.40
2010,11,17,09,02,3.40
2010,11,17,09,03,3.40
2010,11,17,09,04,3.40
2010,11,17,09,05,3.40
2010,11,17,09,06,3.40
2010,11,17,09,07,3.40
2010,11,17,09,08,3.40
2010,11,17,09,09,3.40
2010,11,17,09,10,3.40
2010,11,17,09,11,3.40
2010,11,17,09,12,3.40
2010,11,17,09,13,3.40
2010,11,17,09,14,3.40
2010,11,17,09,15,3.40
2010,11,17,09,16,3.40
2010,11,17,09,17,3.40
2010,11,17,09,18,3.40
2010,11,17,09,19,3.40
2010,11,17,09,20,3.40
2010,11,17,09,21,3.40
2010,11,17,09,22,3.40
2010,11,17,09,23,3.40
2010,11,17,09,24,3.40
2010,11,17,09,25,3.40
2010,11,17,09,26,3.40
2010,11,17,09,27,3.40
2010,11,17,09,28,3.40
2010,11,17,09,29,3.40
2010,11,17,09,30,3.40
2010,11,17,09,31,3.40
2010,11,17,09,32,3.40
2010,11,17,09,33,3.40
2010,11,17,09,34,3.40
2010,11,17,09,35,3.40
2010,11,17,09,36,3.30
2010,11,17,09,37,3.30
2010,11,17,09,38,3.30
2010,11,17,09,39,3.30
2010,11,17,09,40,3.30
2010,11,17,09,41,3.30
2010,11,17,09,42,3.30
2010,11,17,09,43,3.30
2010,11,17,09,44,3.30
2010,11,17,09,45,3.30
2010,11,17,09,46,3.30
2010,11,17,09,47,3.30
2010,11,17,09,48,3.30
2010,11,17,09,49,3.30
2010,11,17,09,50,3.30
2010,11,17,09,51,3.30
2010,11,17,09,52,3.30
2010,11,17,09,53,3.30
2010,11,17,09,54,3.30
2010,11,17,09,55,3.40
2010,11,17,09,56,3.40
2010,11,17,09,57,3.40
2010,11,17,09,58,3.40
2010,11,17,09,59,3.40
2010,11,17,10,00,3.40
2010,11,17,10,01,3.40
2010,11,17,10,02,3.50
2010,11,17,10,03,3.50
2010,11,17,10,04,3.50
2010,11,17,10,05,3.50
2010,11,17,10,06,3.60
2010,11,17,10,07,3.60
2010,11,17,10,08,3.60
2010,11,17,10,09,3.60
2010,11,17,10,10,3.60
2010,11,17,10,11,3.60
2010,11,17,10,12,3.60
2010,11,17,10,13,3.60
2010,11,17,10,14,3.70
2010,11,17,10,15,3.70
2010,11,17,10,16,3.60
2010,11,17,10,17,3.70
2010,11,17,10,18,3.70
2010,11,17,10,19,3.70
2010,11,17,10,20,3.70
2010,11,17,10,21,3.80
2010,11,17,10,22,3.80
2010,11,17,10,23,3.80
2010,11,17,10,24,3.90
2010,11,17,10,25,4.00
2010,11,17,10,26,4.00
2010,11,17,10,27,4.10
2010,11,17,10,28,4.20
2010,11,17,10,29,4.20
2010,11,17,10,30,4.30
2010,11,17,10,31,4.30
2010,11,17,10,32,4.40
2010,11,17,10,33,4.40
2010,11,17,10,34,4.40
2010,11,17,10,35,4.40
2010,11,17,10,36,4.40
2010,11,17,10,37,4.40
2010,11,17,10,38,4.40
2010,11,17,10,39,4.40
2010,11,17,10,40,4.40
2010,11,17,10,41,4.40
2010,11,17,10,42,4.40
2010,11,17,10,43,4.40
2010,11,17,10,44,4.40
2010,11,17,10,45,4.40
2010,11,17,10,46,4.50
2010,11,17,10,47,4.50
2010,11,17,10,48,4.50
2010,11,17,10,49,4.50
2010,11,17,10,50,4.60
2010,11,17,10,51,4.60
2010,11,17,10,52,4.60
2010,11,17,10,53,4.60
2010,11,17,10,54,4.60
2010,11,17,10,55,4.50
2010,11,17,10,56,4.50
2010,11,17,10,57,4.60
2010,11,17,10,58,4.60
2010,11,17,10,59,4.60
2010,11,17,11,00,4.60
2010,11,17,11,01,4.70
2010,11,17,11,02,4.70
2010,11,17,11,03,4.80
2010,11,17,11,04,4.80
2010,11,17,11,05,4.90
2010,11,17,11,06,5.00
2010,11,17,11,07,5.00
2010,11,17,11,08,5.00
2010,11,17,11,09,5.10
2010,11,17,11,10,5.10
2010,11,17,11,11,5.10
2010,11,17,11,12,5.10
2010,11,17,11,13,5.20
2010,11,17,11,14,5.20
2010,11,17,11,15,5.20
2010,11,17,11,16,5.20
2010,11,17,11,17,5.20
2010,11,17,11,18,5.20
2010,11,17,11,19,5.20
2010,11,17,11,20,5.20
2010,11,17,11,21,5.20
2010,11,17,11,22,5.30
2010,11,17,11,23,5.30
2010,11,17,11,24,5.30
2010,11,17,11,25,5.30
2010,11,17,11,26,5.30
2010,11,17,11,27,5.40
2010,11,17,11,28,5.40
2010,11,17,11,29,5.50
2010,11,17,11,30,5.50
2010,11,17,11,31,5.60
2010,11,17,11,32,5.60
2010,11,17,11,33,5.70
2010,11,17,11,34,5.70
2010,11,17,11,35,5.80
2010,11,17,11,36,5.80
2010,11,17,11,37,5.90
2010,11,17,11,38,6.00
2010,11,17,11,39,6.00
2010,11,17,11,40,6.10
2010,11,17,11,41,6.10
2010,11,17,11,42,6.20
2010,11,17,11,43,6.20
2010,11,17,11,44,6.30
2010,11,17,11,45,6.30
2010,11,17,11,46,6.40
2010,11,17,11,47,6.50
2010,11,17,11,48,6.50
2010,11,17,11,49,6.60
2010,11,17,11,50,6.60
2010,11,17,11,51,6.70
2010,11,17,11,52,6.70
2010,11,17,11,53,6.60
2010,11,17,11,54,6.50
2010,11,17,11,55,6.50
2010,11,17,11,56,6.40
2010,11,17,11,57,6.40
2010,11,17,11,58,6.30
2010,11,17,11,59,6.30
2010,11,17,12,00,6.20
2010,11,17,12,01,6.10
2010,11,17,12,02,6.10
2010,11,17,12,03,6.00
2010,11,17,12,04,5.90
2010,11,17,12,05,5.90
2010,11,17,12,06,5.90
2010,11,17,12,07,5.80
2010,11,17,12,08,5.80
2010,11,17,12,09,5.80
2010,11,17,12,10,5.80
2010,11,17,12,11,5.80
2010,11,17,12,12,5.80
2010,11,17,12,13,5.80
2010,11,17,12,14,5.80
2010,11,17,12,15,5.80
2010,11,17,12,16,5.80
2010,11,17,12,17,5.80
2010,11,17,12,18,5.80
2010,11,17,12,19,5.80
2010,11,17,12,20,5.70
2010,11,17,12,21,5.60
2010,11,17,12,22,5.50
2010,11,17,12,23,5.40
2010,11,17,12,24,5.40
2010,11,17,12,25,5.30
2010,11,17,12,26,5.30
2010,11,17,12,27,5.30
2010,11,17,12,28,5.30
2010,11,17,12,29,5.40
2010,11,17,12,30,5.40
2010,11,17,12,31,5.40
2010,11,17,12,32,5.40
2010,11,17,12,33,5.30
2010,11,17,12,34,5.30
2010,11,17,12,35,5.30
2010,11,17,12,36,5.30
2010,11,17,12,37,5.30
2010,11,17,12,38,5.30
2010,11,17,12,39,5.30
2010,11,17,12,40,5.30
2010,11,17,12,41,5.30
2010,11,17,12,42,5.30
2010,11,17,12,43,5.30
2010,11,17,12,44,5.30
2010,11,17,12,45,5.30
2010,11,17,12,46,5.30
2010,11,17,12,47,5.30
2010,11,17,12,48,5.30
2010,11,17,12,49,5.40
2010,11,17,12,50,5.40
2010,11,17,12,51,5.40
2010,11,17,12,52,5.40
2010,11,17,12,53,5.40
2010,11,17,12,54,5.40
2010,11,17,12,55,5.40
2010,11,17,12,56,5.40
2010,11,17,12,57,5.40
2010,11,17,12,58,5.30
2010,11,17,12,59,5.30
2010,11,17,13,00,5.20
2010,11,17,13,01,5.20
2010,11,17,13,02,5.20
2010,11,17,13,03,5.20
2010,11,17,13,04,5.10
2010,11,17,13,05,5.00
2010,11,17,13,06,5.00
2010,11,17,13,07,5.00
2010,11,17,13,08,5.00
2010,11,17,13,09,5.00
2010,11,17,13,10,5.00
2010,11,17,13,11,5.00
2010,11,17,13,12,5.00
2010,11,17,13,13,5.00
2010,11,17,13,14,5.10
2010,11,17,13,15,5.10
2010,11,17,13,16,5.10
2010,11,17,13,17,5.10
2010,11,17,13,18,5.20
2010,11,17,13,19,5.20
2010,11,17,13,20,5.20
2010,11,17,13,21,5.30
2010,11,17,13,22,5.30
2010,11,17,13,23,5.40
2010,11,17,13,24,5.50
2010,11,17,13,25,5.60
2010,11,17,13,26,5.70
2010,11,17,13,27,5.80
2010,11,17,13,28,5.90
2010,11,17,13,29,5.90
2010,11,17,13,30,6.00
2010,11,17,13,31,6.00
2010,11,17,13,32,6.00
2010,11,17,13,33,6.10
2010,11,17,13,34,6.00
2010,11,17,13,35,6.00
2010,11,17,13,36,5.90
2010,11,17,13,37,5.90
2010,11,17,13,38,5.90
2010,11,17,13,39,5.90
2010,11,17,13,40,5.90
2010,11,17,13,41,5.90
2010,11,17,13,42,5.80
2010,11,17,13,43,5.80
2010,11,17,13,44,5.80
2010,11,17,13,45,5.80
2010,11,17,13,46,5.70
2010,11,17,13,47,5.70
2010,11,17,13,48,5.70
2010,11,17,13,49,5.60
2010,11,17,13,50,5.50
2010,11,17,13,51,5.40
2010,11,17,13,52,5.40
2010,11,17,13,53,5.20
2010,11,17,13,54,5.10
2010,11,17,13,55,4.90
2010,11,17,13,56,4.60
2010,11,17,13,57,4.40
2010,11,17,13,58,4.20
2010,11,17,13,59,4.00
2010,11,17,14,00,3.80
2010,11,17,14,01,3.70
2010,11,17,14,02,3.60
2010,11,17,14,03,3.60
2010,11,17,14,04,3.50
2010,11,17,14,05,3.40
2010,11,17,14,06,3.40
2010,11,17,14,07,3.30
2010,11,17,14,08,3.20
2010,11,17,14,09,3.20
2010,11,17,14,10,3.20
2010,11,17,14,11,3.10
2010,11,17,14,12,3.10
2010,11,17,14,13,3.00
2010,11,17,14,14,3.00
2010,11,17,14,15,3.00
2010,11,17,14,16,2.90
2010,11,17,14,17,2.90
2010,11,17,14,18,2.90
2010,11,17,14,19,2.80
2010,11,17,14,20,2.80
2010,11,17,14,21,2.80
2010,11,17,14,22,2.80
2010,11,17,14,23,2.80
2010,11,17,14,24,2.80
2010,11,17,14,25,2.80
2010,11,17,14,26,2.70
2010,11,17,14,27,2.70
2010,11,17,14,28,2.70
2010,11,17,14,29,2.70
2010,11,17,14,30,2.70
2010,11,17,14,31,2.70
2010,11,17,14,32,2.70
2010,11,17,14,33,2.60
2010,11,17,14,34,2.60
2010,11,17,14,35,2.60
2010,11,17,14,36,2.60
2010,11,17,14,37,2.60
2010,11,17,14,38,2.60
2010,11,17,14,39,2.70
2010,11,17,14,40,2.70
2010,11,17,14,41,2.70
2010,11,17,14,42,2.70
2010,11,17,14,43,2.70
2010,11,17,14,44,2.70
2010,11,17,14,45,2.70
2010,11,17,14,46,2.70
2010,11,17,14,47,2.70
2010,11,17,14,48,2.70
2010,11,17,14,49,2.70
2010,11,17,14,50,2.70
2010,11,17,14,51,2.70
2010,11,17,14,52,2.70
2010,11,17,14,53,2.70
2010,11,17,14,54,2.60
2010,11,17,14,55,2.60
2010,11,17,14,56,2.60
2010,11,17,14,57,2.60
2010,11,17,14,58,2.50
2010,11,17,14,59,2.50
2010,11,17,15,00,2.40
2010,11,17,15,01,2.40
2010,11,17,15,02,2.40
2010,11,17,15,03,2.40
2010,11,17,15,04,2.30
2010,11,17,15,05,2.30
2010,11,17,15,06,2.30
2010,11,17,15,07,2.30
2010,11,17,15,08,2.30
2010,11,17,15,09,2.30
2010,11,17,15,10,2.30
2010,11,17,15,11,2.30
2010,11,17,15,12,2.30
2010,11,17,15,13,2.30
2010,11,17,15,14,2.30
2010,11,17,15,15,2.20
2010,11,17,15,16,2.20
2010,11,17,15,17,2.20
2010,11,17,15,18,2.20
2010,11,17,15,19,2.20
2010,11,17,15,20,2.20
2010,11,17,15,21,2.20
2010,11,17,15,22,2.30
2010,11,17,15,23,2.30
2010,11,17,15,24,2.30
2010,11,17,15,25,2.30
2010,11,17,15,26,2.30
2010,11,17,15,27,2.30
2010,11,17,15,28,2.30
2010,11,17,15,29,2.30
2010,11,17,15,30,2.30
2010,11,17,15,31,2.30
2010,11,17,15,32,2.30
2010,11,17,15,33,2.40
2010,11,17,15,34,2.40
2010,11,17,15,35,2.40
2010,11,17,15,36,2.40
2010,11,17,15,37,2.40
2010,11,17,15,38,2.40
2010,11,17,15,39,2.40
2010,11,17,15,40,2.40
2010,11,17,15,41,2.40
2010,11,17,15,42,2.40
2010,11,17,15,43,2.40
2010,11,17,15,44,2.40
2010,11,17,15,45,2.40
2010,11,17,15,46,2.30
2010,11,17,15,47,2.30
2010,11,17,15,48,2.30
2010,11,17,15,49,2.30
2010,11,17,15,50,2.30
2010,11,17,15,51,2.30
2010,11,17,15,52,2.30
2010,11,17,15,53,2.30
2010,11,17,15,54,2.30
2010,11,17,15,55,2.30
2010,11,17,15,56,2.30
2010,11,17,15,57,2.20
2010,11,17,15,58,2.20
2010,11,17,15,59,2.20
2010,11,17,16,00,2.20
2010,11,17,16,01,2.20
2010,11,17,16,02,2.20
2010,11,17,16,03,2.10
2010,11,17,16,04,2.10
2010,11,17,16,05,2.10
2010,11,17,16,06,2.10
2010,11,17,16,07,2.10
2010,11,17,16,08,2.10
2010,11,17,16,09,2.10
2010,11,17,16,10,2.10
2010,11,17,16,11,2.10
2010,11,17,16,12,2.10
2010,11,17,16,13,2.10
2010,11,17,16,14,2.10
2010,11,17,16,15,2.10
2010,11,17,16,16,2.10
2010,11,17,16,17,2.10
2010,11,17,16,18,2.10
2010,11,17,16,19,2.10
2010,11,17,16,20,2.10
2010,11,17,16,21,2.10
2010,11,17,16,22,2.20
2010,11,17,16,23,2.20
2010,11,17,16,24,2.20
2010,11,17,16,25,2.20
2010,11,17,16,26,2.20
2010,11,17,16,27,2.20
2010,11,17,16,28,2.20
2010,11,17,16,29,2.20
2010,11,17,16,30,2.20
2010,11,17,16,31,2.20
2010,11,17,16,32,2.20
2010,11,17,16,33,2.20
2010,11,17,16,34,2.20
2010,11,17,16,35,2.20
2010,11,17,16,36,2.10
2010,11,17,16,37,2.10
2010,11,17,16,38,2.10
2010,11,17,16,39,2.10
2010,11,17,16,40,2.10
2010,11,17,16,41,2.10
2010,11,17,16,42,2.10
2010,11,17,16,43,2.10
2010,11,17,16,44,2.10
2010,11,17,16,45,2.10
2010,11,17,16,46,2.10
2010,11,17,16,47,2.10
2010,11,17,16,48,2.10
2010,11,17,16,49,2.10
2010,11,17,16,50,2.10
2010,11,17,16,51,2.10
2010,11,17,16,52,2.10
2010,11,17,16,53,2.10
2010,11,17,16,54,2.10
2010,11,17,16,55,2.10
2010,11,17,16,56,2.10
2010,11,17,16,57,2.10
2010,11,17,16,58,2.10
2010,11,17,16,59,2.10
2010,11,17,17,00,2.10
2010,11,17,17,01,2.10
2010,11,17,17,02,2.10
2010,11,17,17,03,2.10
2010,11,17,17,04,2.10
2010,11,17,17,05,2.00
2010,11,17,17,06,2.00
2010,11,17,17,07,2.00
2010,11,17,17,08,2.00
2010,11,17,17,09,2.00
2010,11,17,17,10,2.00
2010,11,17,17,11,2.00
2010,11,17,17,12,2.00
2010,11,17,17,13,2.00
2010,11,17,17,14,2.10
2010,11,17,17,15,2.10
2010,11,17,17,16,2.10
2010,11,17,17,17,2.10
2010,11,17,17,18,2.10
2010,11,17,17,19,2.10
2010,11,17,17,20,2.10
2010,11,17,17,21,2.10
2010,11,17,17,22,2.10
2010,11,17,17,23,2.10
2010,11,17,17,24,2.20
2010,11,17,17,25,2.20
2010,11,17,17,26,2.20
2010,11,17,17,27,2.20
2010,11,17,17,28,2.20
2010,11,17,17,29,2.20
2010,11,17,17,30,2.30
2010,11,17,17,31,2.30
2010,11,17,17,32,2.30
2010,11,17,17,33,2.30
2010,11,17,17,34,2.30
2010,11,17,17,35,2.30
2010,11,17,17,36,2.30
2010,11,17,17,37,2.30
2010,11,17,17,38,2.40
2010,11,17,17,39,2.30
2010,11,17,17,40,2.30
2010,11,17,17,41,2.30
2010,11,17,17,42,2.30
2010,11,17,17,43,2.30
2010,11,17,17,44,2.30
2010,11,17,17,45,2.20
2010,11,17,17,46,2.20
2010,11,17,17,47,2.20
2010,11,17,17,48,2.20
2010,11,17,17,49,2.20
2010,11,17,17,50,2.20
2010,11,17,17,51,2.20
2010,11,17,17,52,2.20
2010,11,17,17,53,2.20
2010,11,17,17,54,2.20
2010,11,17,17,55,2.20
2010,11,17,17,56,2.20
2010,11,17,17,57,2.10
2010,11,17,17,58,2.10
2010,11,17,17,59,2.10
2010,11,17,18,00,2.10
2010,11,17,18,01,2.10
2010,11,17,18,02,2.10
2010,11,17,18,03,2.10
2010,11,17,18,04,2.10
2010,11,17,18,05,2.10
2010,11,17,18,06,2.10